TIME,DELAY(SENSOR),PRES,T(CTD),SAL,OXYGEN,RAWTEMP,T(OPTODE),TCPHASE,FLUOR,BETA(BETA700),BETA(BETA412),BETA(BETA440),CDOM,C(CSC),ED(ED411.90),ED(ED443.80),ED(ED489.40),ED(ED554.70),LU(LU412.20),LU(LU443.80),LU(LU489.40),LU(LU555.00),COMP,TILTX,TILTX(TILTY),CHECK
1349796078,5803,497.3399963378906000,16.8500995635986330,36.3359985351562500,218.1121978759765600,207.4875946044922000,16.8539695739746100,32.8772201538085940,50,102,64,82,62,3046,2147481371,2147768466,2147557092,2147795200,2147317357,2147469970,2147714285,2148248630,3558,7,13,9291
1349796210,5804,486.3699951171875000,17.0533008575439450,36.3759002685546900,222.5339050292968800,201.0975952148437500,17.0482997894287100,32.5563011169433600,50,103,64,83,60,3052,2147479497,2147767469,2147562166,2147795392,2147316608,2147475291,2147709632,2148246747,70,7,12,14447
1349796344,5805,475.3500061035156000,17.1865005493164060,36.4037017822265600,225.8842010498047000,196.5294952392578000,17.1872501373291000,32.3214302062988300,50,103,63,83,60,3051,2147483629,2147770459,2147560182,2147795721,2147313042,2147473581,2147709888,2148243995,179,7,13,55357
1349796476,5802,464.6199951171875000,17.2922992706298830,36.4244003295898440,227.9667968750000000,193.2059020996093800,17.2883491516113280,32.1704101562500000,49,102,63,83,59,3054,2147483318,2147769024,2147558930,2147796306,2147318208,2147470784,2147711689,2148245979,3544,7,13,40747
1349796610,5804,453.5700073242187500,17.3743991851806640,36.4411010742187500,229.8385925292968800,190.4277038574218800,17.3728809356689450,32.0387306213378900,49,104,65,82,60,3057,2147484096,2147765888,2147559085,2147796644,2147321225,2147478317,2147713993,2148242185,3487,7,12,50241
1349796742,5804,442.2200012207031000,17.4878005981445300,36.4620018005371100,230.8069000244140600,186.6520996093750000,17.4877490997314450,31.9390907287597660,50,103,64,82,60,3061,2147488777,2147765878,2147558838,2147795593,2147315401,2147473673,2147710994,2148241654,2992,7,13,60623
1349796863,5803,431.3500061035156000,17.5499000549316400,36.4747009277343750,231.8482971191406200,184.7265014648437500,17.5463504791259770,31.8615703582763670,50,103,64,83,59,3062,2147486939,2147766253,2147559378,2147795574,2147315520,2147472832,2147710774,2148245632,2906,7,13,24256
1349796986,5803,420.0799865722656000,17.6336994171142580,36.4901008605957000,232.8627014160156200,181.8871002197265600,17.6327590942382800,31.7734909057617200,50,103,63,82,60,3061,2147483200,2147766134,2147555748,2147792274,2147316873,2147474989,2147704886,2148243419,2338,7,13,13556
1349797107,5801,408.9599914550781000,17.6909999847412100,36.5017013549804700,233.9434967041015600,180.0861053466797000,17.6875705718994140,31.6964607238769530,50,102,65,82,59,3064,2147486016,2147765604,2147554916,2147792384,2147320694,2147474404,2147706825,2148243730,1889,7,13,53045
1349797219,5806,398.6600036621094000,17.7584991455078120,36.5127983093261700,234.6981964111328000,177.8383026123047000,17.7559890747070300,31.6295890808105470,50,104,64,83,61,3068,2147487817,2147767954,2147557138,2147795885,2147307510,2147482313,2147711040,2148246838,1943,7,13,7661
1349797340,5804,387.7200012207031000,17.8055000305175780,36.5214996337890600,234.8892974853515600,176.2310028076172000,17.8049201965332030,31.5986595153808600,49,103,64,82,60,3072,2147488941,2147762194,2147558939,2147788598,2147317760,2147477220,2147706806,2148242057,1514,7,13,13304
1349797472,5805,376.4400024414062500,17.8845005035400400,36.5339012145996100,235.8986053466797000,173.7644958496093800,17.8800106048584000,31.5165596008300780,50,103,64,82,60,3082,2147487771,2147766784,2147557942,2147792548,2147310893,2147472118,2147710262,2148242523,772,7,12,63162
1349797606,5805,365.6700134277344000,17.9365997314453120,36.5429000854492200,236.1224060058593800,171.9792022705078000,17.9343700408935550,31.4818801879882800,50,103,65,83,59,3089,2147493056,2147765878,2147558884,2147791012,2147314642,2147476397,2147707748,2148242340,312,7,12,2108
1349797749,5802,354.9700012207031000,17.9862003326416000,36.5481986999511700,235.6463928222656200,170.3430023193359400,17.9841899871826170,31.4825592041015620,49,103,64,83,58,3091,2147489892,2147764992,2147558345,2147794505,2147312612,2147478784,2147706176,2148241947,168,7,12,41551
1349797894,5801,343.3200073242187500,18.0342998504638670,36.5528984069824200,234.4889984130859400,168.8106994628906200,18.0308494567871100,31.5175590515136720,50,103,64,83,59,3099,2147489600,2147766244,2147555090,2147791661,2147315849,2147479131,2147707108,2148242422,3312,7,12,59110
1349798015,5800,331.9500122070312500,18.0608997344970700,36.5536003112793000,232.9738006591797000,167.6688995361328000,18.0656204223632800,31.5756607055664060,50,103,63,82,60,3103,2147490432,2147766070,2147557558,2147792329,2147315465,2147478537,2147711040,2148239780,3382,8,12,18940
1349798138,5802,320.6400146484375000,18.1417007446289060,36.5638008117675800,232.4172058105468800,165.2191009521484400,18.1402301788330080,31.5695896148681640,50,104,63,83,59,3106,2147491172,2147762139,2147556068,2147794020,2147303652,2147473636,2147708470,2148239177,3311,7,12,46048
1349798270,5800,308.8500061035156000,18.2240009307861330,36.5740013122558600,232.5821990966797000,162.3388977050781200,18.2279605865478500,31.5228099822998050,49,105,63,84,60,3109,2147489664,2147761819,2147557778,2147793206,2147312960,2147476443,2147705609,2148242660,2665,7,12,21710
1349798391,5801,298.2999877929687500,18.3005008697509770,36.5806999206543000,231.8605041503906200,160.0995025634765600,18.2961902618408200,31.5279293060302730,50,104,65,84,60,3114,2147490825,2147763419,2147557549,2147792347,2147314057,2147475657,2147708004,2148240905,2172,7,12,14665
1349798514,5805,287.7099914550781000,18.3736991882324220,36.5867004394531250,231.2019958496093800,157.6354064941406200,18.3712692260742200,31.5269508361816400,50,103,63,83,59,3115,2147488585,2147762496,2147558098,2147791451,2147306441,2147478381,2147704484,2148238226,2044,7,12,12633
1349798646,5802,276.4500122070312500,18.5261993408203120,36.5984001159668000,229.6311035156250000,152.4532928466797000,18.5291996002197270,31.5343894958496100,50,103,63,84,60,3122,2147488384,2147764233,2147557184,2147794413,2147304374,2147475556,2147706093,2148240740,1484,7,12,46289
1349798780,5801,265.0799865722656000,18.6623001098632800,36.6109008789062500,228.0162963867187500,147.9985961914062500,18.6650104522705080,31.5545291900634770,50,103,65,83,60,3125,2147486720,2147762825,2147558290,2147793819,2147307730,2147475401,2147704795,2148240310,430,7,12,22082
1349798901,5799,254.6699981689453000,18.7504997253417970,36.5993003845214840,229.4203033447265600,145.3455963134765600,18.7459106445312500,31.4496803283691400,49,103,64,84,60,3135,2147488256,2147763465,2147557878,2147791597,2147307090,2147475062,2147706834,2148240832,2528,7,12,52058
1349799033,5802,242.9799957275390600,18.9039993286132800,36.6016998291015600,231.5442962646484400,140.0438995361328000,18.9076194763183600,31.2747898101806640,50,102,63,84,59,3138,2147490870,2147760841,2147557942,2147791808,2147305737,2147477988,2147704585,2148241298,1346,8,12,59027
1349799145,5805,232.5700073242187500,19.0298004150390620,36.6015014648437500,233.3970947265625000,136.1331939697265600,19.0269508361816400,31.1333694458007800,50,103,64,82,60,3135,2147491812,2147761444,2147558637,2147789933,2147311213,2147479917,2147704283,2148238381,1751,7,13,5351
1349799266,5805,221.3699951171875000,19.0426006317138670,36.5721015930175800,239.3486938476562500,135.5334014892578000,19.0452499389648440,30.8437194824218750,49,103,64,83,58,3149,2147491812,2147764480,2147558290,2147789257,2147314916,2147481773,2147707885,2148240768,1206,7,12,61361
1349799389,5803,209.9499969482422000,19.1840991973876950,36.5826988220214840,243.1918945312500000,131.2261962890625000,19.1767292022705080,30.6094894409179700,50,103,64,83,58,3154,2147492690,2147767689,2147568722,2147789677,2147309293,2147484160,2147708233,2148237906,766,7,12,5450
1349799510,5806,198.8399963378906200,19.2206001281738280,36.5774993896484400,247.4463043212890600,129.5397949218750000,19.2282199859619140,30.3950901031494140,50,103,63,81,59,3160,2147491830,2147764626,2147570368,2147788041,2147311926,2147486235,2147707227,2148237266,50,7,12,16720
1349799565,5805,193.9299926757812500,19.2644004821777340,36.5788993835449200,248.1820068359375000,128.4893035888672000,19.2602901458740230,30.3484706878662100,50,104,63,83,58,3161,2147491510,2147765942,2147569398,2147787501,2147312091,2147482112,2147711040,2148237650,3391,7,12,3303
1349799620,5805,189.0599975585937500,19.2893009185791000,36.5772018432617200,249.1607055664062500,127.6386032104492200,19.2862701416015620,30.2939491271972660,50,105,64,83,58,3160,2147493412,2147766665,2147571136,2147787510,2147309339,2147479350,2147710500,2148239030,3105,7,12,368
1349799675,5802,184.3500061035156200,19.2947006225585940,36.5772018432617200,250.0814971923828000,127.4418029785156200,19.2922801971435550,30.2506904602050780,50,104,64,84,58,3161,2147495378,2147768841,2147574537,2147786752,2147309165,2147486619,2147711725,2148239058,2580,7,12,20642
1349799750,5805,178.4600067138672000,19.3213996887207030,36.5708007812500000,249.1461944580078000,126.6141967773437500,19.3175601959228500,30.2812805175781250,50,107,63,83,58,3165,2147496740,2147764461,2147574720,2147788736,2147306797,2147488210,2147710372,2148236507,1998,7,12,34933
1349799805,5801,174.6399993896484400,19.3533992767334000,36.5744018554687500,249.1204071044922000,125.4959030151367200,19.3517093658447270,30.2678394317626950,51,110,64,84,58,3171,2147496832,2147770249,2147578697,2147785545,2147310262,2147487414,2147710473,2148237129,2135,7,13,40053
1349799860,5803,170.8699951171875000,19.4013004302978500,36.5798988342285160,248.9653930664062500,123.9830017089843800,19.3979301452636720,30.2548408508300780,53,109,65,84,58,3172,2147494756,2147768109,2147580653,2147789065,2147308964,2147487753,2147714633,2148240100,2336,7,12,46872
1349799915,5803,167.2599945068359400,19.4414005279541000,36.5836982727050800,248.9826965332031200,122.7005996704101600,19.4370994567871100,30.2375106811523440,53,109,64,85,58,3174,2147495963,2147771264,2147581412,2147786185,2147311698,2147487762,2147714267,2148238848,2690,7,12,6336
1349799981,5804,162.9700012207031200,19.4864006042480470,36.5877990722656250,248.5608062744140600,121.2536010742187500,19.4813098907470700,30.2375793457031250,56,110,63,84,58,3173,2147497536,2147771968,2147586797,2147787958,2147315099,2147487186,2147713234,2148241344,3362,7,12,37494
1349800058,5803,158.3999938964843800,19.5081996917724600,36.5891990661621100,248.5511932373047000,120.4914016723632800,19.5046005249023440,30.2281208038330080,56,112,64,84,58,3172,2147498633,2147774500,2147591442,2147784822,2147312832,2147489618,2147719259,2148237083,3283,7,12,1349
1349800135,5799,154.4700012207031200,19.5396995544433600,36.5933990478515600,248.2781066894531200,119.4695968627929700,19.5358295440673830,30.2267608642578120,58,114,64,84,58,3181,2147504045,2147776356,2147597275,2147787373,2147301741,2147492288,2147723894,2148236525,3179,7,12,49819
1349800212,5802,150.5200042724609400,19.5869007110595700,36.5973014831543000,247.9046936035156200,118.0248031616211000,19.5799903869628900,30.2246608734130860,61,116,64,85,58,3188,2147499382,2147779520,2147602697,2147788726,2147315520,2147490349,2147725979,2148241088,2992,7,12,6074
1349800289,5801,146.4900054931640600,19.6116008758544920,36.6004981994628900,247.6213073730468800,117.1146011352539000,19.6078090667724600,30.2254905700683600,63,114,64,86,59,3197,2147503606,2147785060,2147611282,2147788891,2147320749,2147493760,2147728146,2148240704,2830,7,13,31110
1349800368,5802,142.3000030517578000,19.6655998229980470,36.6055984497070300,247.1436004638672000,115.4328002929687500,19.6592197418212900,30.2250595092773440,64,116,64,86,59,3193,2147502400,2147790418,2147626331,2147787446,2147312914,2147499209,2147735286,2148238756,2710,7,12,63591
1349800445,5803,138.2299957275390600,19.7311000823974600,36.6128997802734400,246.7917022705078000,113.3105010986328100,19.7241096496582030,30.2133693695068360,67,115,64,85,58,3196,2147511140,2147798646,2147641481,2147788187,2147319771,2147505865,2147743762,2148241188,2987,7,12,21248
1349800522,5805,134.4600067138672000,19.7752990722656250,36.6114006042480500,246.4510955810547000,111.8240966796875000,19.7695598602294920,30.2091999053955080,67,116,64,86,59,3199,2147508992,2147806125,2147659428,2147787666,2147314276,2147511058,2147747520,2148242514,2454,7,12,21001
1349800610,5801,130.5899963378906200,19.9151000976562500,36.6286010742187500,245.9293060302734400,107.4440994262695300,19.9035491943359380,30.1758708953857420,68,121,63,84,60,3194,2147514834,2147817627,2147680064,2147788315,2147322587,2147513078,2147764699,2148236507,1524,7,12,21954
1349800711,5803,126.6699981689453100,19.9629001617431640,36.6318016052246100,245.9985961914062500,105.7340011596679700,19.9558792114257800,30.1507301330566400,71,120,64,85,58,3201,2147520557,2147835264,2147709952,2147787565,2147313188,2147522614,2147780004,2148241709,912,7,12,46485
1349800810,5803,122.9700012207031200,19.9577999114990230,36.6269989013671900,246.8175048828125000,105.6778030395507800,19.9575901031494140,30.1134300231933600,73,120,63,86,61,3197,2147530624,2147856896,2147743076,2147788635,2147327808,2147533558,2147793042,2148239003,251,7,12,48588
1349800920,5801,119.0699996948242200,20.1268997192382800,36.6414985656738300,246.8547058105468800,100.6439971923828100,20.1116790771484380,30.0466709136962900,77,121,64,85,59,3211,2147541440,2147882496,2147783049,2147791515,2147332068,2147549138,2147813184,2148241673,3352,7,13,14167
1349801028,5806,114.8099975585937500,20.2371997833251950,36.6562004089355500,245.4259033203125000,96.6392669677734400,20.2343196868896500,30.0591506958007800,78,122,64,85,59,3207,2147556013,2147916928,2147845357,2147787913,2147336237,2147564059,2147835300,2148244763,3235,7,12,41551
1349801116,5804,110.8600006103515600,20.3033008575439450,36.6520004272460940,245.2675018310547000,94.7299270629882800,20.2928104400634770,30.0414295196533200,84,123,63,85,58,3205,2147578697,2147959104,2147912859,2147790738,2147340708,2147581485,2147867748,2148245833,2675,7,12,1880
1349801215,5803,106.8300018310546900,20.4430007934570300,36.6635017395019500,246.9006958007812500,89.7289733886718800,20.4460792541503900,29.9044704437255860,89,125,64,85,59,3201,2147608566,2148015670,2148001956,2147790125,2147357577,2147601947,2147898578,2148249627,2613,7,13,38198
1349801327,5801,102.7200012207031200,20.6079006195068360,36.6782989501953100,245.6305999755859400,84.8718566894531200,20.5950107574462900,29.8986701965332030,94,126,63,84,59,3207,2147649179,2148088813,2148107200,2147792054,2147365010,2147633718,2147944402,2148254646,2012,7,12,1256
1349801426,5805,99.0100021362304700,20.7411994934082030,36.6887016296386700,243.2071075439453000,80.6705627441406200,20.7239093780517580,29.9533500671386720,98,124,64,85,58,3206,2147692534,2148168832,2148221312,2147796992,2147388946,2147664064,2147987702,2148255945,1582,7,12,46177
1349801481,5802,97.0500030517578100,20.7775001525878900,36.6827011108398440,244.2418975830078000,79.0966033935546900,20.7722206115722660,29.8867206573486330,103,126,65,86,59,3212,2147722706,2148222427,2148289929,2147798838,2147395657,2147681874,2148012114,2148260306,1342,7,12,2800
1349801547,5804,94.9499969482421900,20.8567008972167970,36.6786003112793000,246.3489990234375000,76.8337173461914000,20.8416900634765620,29.7637805938720700,111,128,64,87,58,3203,2147766281,2148291565,2148382171,2147802715,2147410678,2147703497,2148042779,2148263168,774,7,12,32078
1349801625,5804,92.1399993896484400,20.9543991088867200,36.6978988647460940,246.3204040527343800,73.6569900512695300,20.9392395019531250,29.7245197296142580,103,129,65,85,59,3225,2147841590,2148412580,2148538011,2147802806,2147435913,2147746971,2148094116,2148267099,501,7,12,6862
1349801680,5804,89.4400024414062500,20.9778995513916000,36.6953010559082000,245.1004943847656200,72.5726089477539000,20.9725494384765620,29.7650909423828120,107,131,65,87,59,3223,2147917979,2148534299,2148691190,2147808841,2147454765,2147790436,2148150893,2148273846,630,7,12,46122
1349801735,5804,86.7300033569336000,21.0720996856689450,36.6954002380371100,245.9449005126953000,69.6942672729492200,21.0609893798828120,29.6908092498779300,99,127,66,88,59,3222,2148009563,2148678628,2148863798,2147811894,2147494134,2147839149,2148215076,2148278729,352,7,12,46045
1349801790,5807,84.3600006103515600,21.2476997375488280,36.6904983520507800,247.4266052246093800,64.1411666870117200,21.2317104339599600,29.5545291900634770,104,123,65,87,59,3215,2148108086,2148823588,2149023762,2147819419,2147518491,2147889225,2148275803,2148286701,70,7,12,45810
1349801845,5802,82.6999969482421900,21.3540992736816400,36.6952018737793000,249.6009979248047000,60.7717704772949200,21.3353500366210940,29.4170207977294920,93,123,64,87,58,3225,2148190628,2148940443,2149156004,2147824329,2147547565,2147932992,2148330166,2148292416,3060,7,12,21230
1349801900,5805,81.4800033569336000,21.3887004852294920,36.6943016052246100,250.0379943847656200,59.3703193664550800,21.3784809112548830,29.3803997039794920,88,123,64,86,59,3231,2148270491,2149046381,2149260937,2147828544,2147572123,2147971337,2148370313,2148300964,2804,7,12,56748
1349802000,5803,78.8899993896484400,21.6142005920410160,36.6771011352539060,253.8764953613281200,52.3708190917968750,21.5939903259277340,29.1273307800292970,76,123,64,86,56,3244,2148500909,2149333010,2149542354,2147840621,2147652406,2148089188,2148497554,2148310336,2632,7,12,13127
1349802055,5800,77.0699996948242200,21.6417007446289060,36.6749000549316400,256.7296142578125000,51.2046089172363300,21.6299190521240230,28.9922294616699220,76,123,65,86,56,3233,2148645494,2149516086,2149706715,2147847753,2147709366,2148171218,2148580544,2148319405,2369,6,12,44454
1349802110,5804,74.9300003051757800,21.7714996337890620,36.6781997680664060,256.9598083496094000,46.7298889160156250,21.7678298950195300,28.9265403747558600,74,121,65,86,57,3234,2148850770,2149754093,2149940288,2147859318,2147792512,2148284269,2148693787,2148332937,1723,7,12,35725
1349802165,5803,72.7099990844726600,21.8908996582031250,36.6725997924804700,260.0831909179687500,44.3337516784668000,21.8417205810546880,28.7668495178222660,71,122,64,89,56,3236,2149049526,2149981211,2150158738,2147875995,2147878089,2148395748,2148805568,2148346176,1518,7,12,21944
1349802220,5802,70.7300033569336000,21.9764003753662100,36.6674003601074200,260.7489929199219000,41.3198890686035160,21.9347000122070300,28.7020797729492200,71,122,65,86,56,3244,2149265828,2150219108,2150380187,2147886409,2147972525,2148512045,2148920429,2148360987,1684,7,12,41992
1349802298,5802,68.1100006103515600,22.1011009216308600,36.6526985168457000,260.3876037597656000,36.1293907165527340,22.0949192047119140,28.6524696350097660,70,127,65,89,56,3240,2149684928,2150666788,2150782326,2147912118,2148135652,2148732178,2149121325,2148383433,1903,7,12,51012
1349802353,5803,66.3199996948242200,22.3010005950927730,36.6469001770019500,261.5364990234375000,30.1060905456542970,22.2810192108154300,28.5307407379150400,69,126,65,87,56,3234,2150005869,2150990646,2151056786,2147930852,2148276836,2148895817,2149265115,2148399680,1737,7,12,11211
1349802408,5803,64.8899993896484400,22.3773994445800780,36.6441001892089840,262.2728881835937500,27.6458206176757800,22.3570804595947270,28.4702396392822270,69,127,65,88,58,3235,2150327515,2151305462,2151326637,2147950089,2148418742,2149063021,2149412379,2148417216,1431,7,12,29698
1349802474,5806,62.9799995422363300,22.6151008605957030,36.6263999938964840,262.7384033203125000,20.3137092590332030,22.5839595794677730,28.3608894348144530,72,128,64,87,56,3234,2150707309,2151681965,2151656256,2147978258,2148605860,2149266358,2149601353,2148441426,812,7,12,10781
1349802540,5805,61.0800018310546900,22.7595996856689450,36.6040000915527340,263.6395874023437500,15.5899696350097660,22.7302703857421880,28.2663993835449220,71,132,65,88,56,3261,2151187126,2152194578,2152156608,2148015460,2148823149,2149544365,2149858368,2148468160,127,7,12,41161
1349802618,5803,58.7599983215332000,22.8777999877929700,36.5945014953613300,263.8622131347656000,11.1591196060180660,22.8676300048828120,28.2029895782470700,67,132,65,89,56,3259,2151946276,2152967981,2152876827,2148083748,2149190080,2149960045,2150250477,2148518016,3049,7,12,16142
1349802673,5803,56.6800003051757800,23.2707996368408200,36.6118011474609400,264.3486022949219000,0.0831037834286690,23.2114505767822270,28.0478801727294920,67,130,66,89,56,3255,2152682514,2153686948,2153529243,2148148964,2149567049,2150378020,2150615213,2148567808,2167,7,12,48596
1349802728,5803,55.1399993896484400,23.3565998077392580,36.6167984008789060,267.3157043457031000,-3.7337689399719240,23.3300991058349600,27.8834705352783200,64,128,65,87,55,3265,2153331684,2154335131,2154126710,2148206610,2149911533,2150746715,2150940845,2148612507,1513,7,12,45046
1349802882,5803,53.1300010681152340,23.5135002136230470,36.5962982177734400,269.5968017578125000,-6.5899820327758790,23.4189395904541000,27.7592105865478500,67,126,66,88,55,3269,2154579209,2155617673,2155336265,2148324132,2150574665,2151486427,2151603446,2148693961,605,8,12,648
1349803130,5800,51.8600006103515600,24.0807991027832030,36.5651016235351560,268.2915039062500000,-27.3447799682617200,24.0660095214843750,27.5585994720459000,67,128,67,90,55,3267,2155581696,2156528054,2156121654,2148413952,2151404928,2152298541,2152207259,2148765814,445,7,12,31641
1349803342,5805,49.6699981689453100,24.4333992004394530,36.5334014892578100,268.1191101074219000,-38.1264381408691400,24.4032306671142580,27.4351291656494140,63,128,67,89,53,3269,2156119049,2156900251,2156338624,2148471469,2151972571,2152765202,2152487862,2148802349,2782,7,12,35321
1349803423,5801,47.7400016784668000,24.4990005493164060,36.5157012939453100,267.0917053222656000,-40.9124298095703100,24.4904994964599600,27.4417495727539060,64,129,64,89,54,3261,2156607387,2157328987,2156767478,2148573147,2152351113,2153120896,2152771190,2148849417,2998,7,12,26449
1349803551,5803,45.6500015258789060,24.5205993652343750,36.4835014343261700,266.3747863769531000,-42.6672515869140600,24.5454902648925780,27.4485702514648440,63,128,64,91,54,3283,2157157705,2157819236,2157246070,2148695744,2152786057,2153521755,2153103396,2148909833,2766,7,12,64910
1349803620,5804,43.8100013732910160,24.8831005096435550,36.4682998657226560,264.6485900878906000,-52.3639297485351560,24.8497505187988280,27.3996200561523440,64,130,66,90,54,3267,2157754194,2158338861,2157711030,2148809188,2153317010,2154007140,2153460754,2148963602,2614,9,11,7559
1349803892,5804,41.7400016784668000,25.4370994567871100,36.4508018493652340,261.1249084472656000,-69.4524307250976600,25.3875904083251950,27.3333396911621100,63,131,65,89,54,3274,2159646326,2160089307,2159298724,2149073197,2154777398,2155369353,2154517586,2149123876,3499,6,11,29413
1349804200,5803,39.9399986267089840,26.7173004150390620,36.4385986328125000,252.2673950195312500,-105.3825988769531200,26.5257701873779300,27.2592201232910160,63,133,66,90,54,3292,2163024018,2163474386,2162565641,2149568594,2157415049,2157974134,2156659748,2149432640,2287,9,11,62118
1349805012,5803,37.8300018310546900,27.0585002899169920,36.3614997863769500,238.7835998535156200,-122.1532974243164000,27.0606803894042970,27.6273193359375000,59,118,65,87,53,3269,2168566235,2168961371,2167874459,2150416164,2163865846,2163744164,2160819894,2149978313,2376,8,11,3296
1349805104,5804,35.8300018310546900,27.0443000793457030,36.3196983337402340,238.2915039062500000,-121.9710006713867200,27.0548496246337900,27.6510791778564450,59,128,63,87,52,3276,2170116214,2170414070,2169379227,2150996443,2166029814,2165565549,2162132077,2150226870,2311,7,12,55525